TimeEDT,TemperatureF,Dew PointF,Humidity,Sea Level PressureIn,VisibilityMPH,Wind Direction,Wind SpeedMPH,Gust SpeedMPH,PrecipitationIn,Events,Conditions,WindDirDegrees,DateUTC
12:15 AM,46.4,46.4,100,30.20,10.0,Calm,Calm,-,N/A,,Clear,0,2012-10-23 04:15:00
12:35 AM,46.4,46.4,100,30.20,10.0,Calm,Calm,-,N/A,,Clear,0,2012-10-23 04:35:00
12:55 AM,46.4,46.4,100,30.20,10.0,Calm,Calm,-,N/A,,Clear,0,2012-10-23 04:55:00
1:15 AM,46.4,46.4,100,30.19,10.0,Calm,Calm,-,N/A,,Clear,0,2012-10-23 05:15:00
1:35 AM,46.4,46.4,100,30.19,10.0,Calm,Calm,-,N/A,,Clear,0,2012-10-23 05:35:00
2:15 AM,46.4,46.4,100,30.18,10.0,Calm,Calm,-,N/A,,Clear,0,2012-10-23 06:15:00
2:55 AM,48.2,48.2,100,30.18,10.0,Calm,Calm,-,N/A,,Clear,0,2012-10-23 06:55:00
3:35 AM,46.4,46.4,100,30.17,10.0,Calm,Calm,-,N/A,,Clear,0,2012-10-23 07:35:00
3:55 AM,44.6,44.6,100,30.17,10.0,Calm,Calm,-,N/A,,Clear,0,2012-10-23 07:55:00
4:15 AM,44.6,44.6,100,30.16,10.0,Calm,Calm,-,N/A,,Clear,0,2012-10-23 08:15:00
4:35 AM,46.4,46.4,100,30.17,10.0,Calm,Calm,-,N/A,,Clear,0,2012-10-23 08:35:00
4:55 AM,44.6,44.6,100,30.17,10.0,Calm,Calm,-,N/A,,Clear,0,2012-10-23 08:55:00
5:15 AM,46.4,46.4,100,30.17,10.0,Calm,Calm,-,N/A,,Clear,0,2012-10-23 09:15:00
5:35 AM,46.4,46.4,100,30.17,10.0,Calm,Calm,-,N/A,,Clear,0,2012-10-23 09:35:00
5:55 AM,44.6,44.6,100,30.17,10.0,Calm,Calm,-,N/A,,Clear,0,2012-10-23 09:55:00
6:15 AM,44.6,44.6,100,30.18,10.0,Calm,Calm,-,N/A,,Clear,0,2012-10-23 10:15:00
6:55 AM,44.6,44.6,100,30.18,10.0,Calm,Calm,-,N/A,,Clear,0,2012-10-23 10:55:00
7:15 AM,46.4,46.4,100,30.18,10.0,Calm,Calm,-,N/A,,Clear,0,2012-10-23 11:15:00
7:35 AM,46.4,46.4,100,30.19,10.0,Calm,Calm,-,N/A,,Clear,0,2012-10-23 11:35:00
8:15 AM,48.2,48.2,100,30.20,10.0,Calm,Calm,-,N/A,,Clear,0,2012-10-23 12:15:00
9:55 AM,60.8,59.0,94,30.22,10.0,Calm,Calm,-,N/A,,Clear,0,2012-10-23 13:55:00
10:35 AM,68.0,57.2,68,30.22,10.0,North,4.6,-,N/A,,Clear,10,2012-10-23 14:35:00
11:15 AM,71.6,55.4,57,30.21,10.0,NNE,5.8,-,N/A,,Clear,30,2012-10-23 15:15:00
11:35 AM,71.6,57.2,60,30.21,10.0,NNE,4.6,-,N/A,,Clear,30,2012-10-23 15:35:00
11:55 AM,71.6,59.0,64,30.21,10.0,East,5.8,-,N/A,,Clear,90,2012-10-23 15:55:00
12:15 PM,73.4,59.0,61,30.21,10.0,NE,6.9,-,N/A,,Clear,40,2012-10-23 16:15:00
12:35 PM,73.4,59.0,61,30.20,10.0,ENE,4.6,-,N/A,,Clear,60,2012-10-23 16:35:00
12:55 PM,73.4,59.0,61,30.19,10.0,ENE,5.8,-,N/A,,Clear,60,2012-10-23 16:55:00
1:15 PM,75.2,59.0,57,30.18,10.0,ESE,5.8,-,N/A,,Clear,120,2012-10-23 17:15:00
1:35 PM,75.2,59.0,57,30.17,10.0,SE,6.9,-,N/A,,Clear,130,2012-10-23 17:35:00
1:55 PM,75.2,60.8,61,30.16,10.0,ESE,5.8,-,N/A,,Clear,120,2012-10-23 17:55:00
2:15 PM,73.4,60.8,65,30.15,10.0,SE,6.9,-,N/A,,Clear,130,2012-10-23 18:15:00
2:35 PM,73.4,59.0,61,30.14,10.0,ESE,8.1,-,N/A,,Clear,110,2012-10-23 18:35:00
2:55 PM,73.4,60.8,65,30.14,10.0,ESE,8.1,-,N/A,,Clear,120,2012-10-23 18:55:00
3:15 PM,73.4,59.0,61,30.14,10.0,ESE,6.9,-,N/A,,Clear,120,2012-10-23 19:15:00
3:35 PM,73.4,60.8,65,30.13,10.0,ESE,6.9,-,N/A,,Clear,110,2012-10-23 19:35:00
4:15 PM,73.4,60.8,65,30.14,10.0,ESE,8.1,-,N/A,,Clear,120,2012-10-23 20:15:00
4:35 PM,73.4,60.8,65,30.14,10.0,ESE,8.1,-,N/A,,Clear,110,2012-10-23 20:35:00
4:55 PM,71.6,60.8,69,30.14,10.0,SE,10.4,-,N/A,,Clear,130,2012-10-23 20:55:00
5:15 PM,71.6,60.8,69,30.14,10.0,ESE,6.9,-,N/A,,Clear,110,2012-10-23 21:15:00
5:35 PM,69.8,60.8,73,30.14,10.0,ESE,8.1,-,N/A,,Clear,110,2012-10-23 21:35:00
5:55 PM,69.8,62.6,78,30.14,10.0,ESE,5.8,-,N/A,,Clear,110,2012-10-23 21:55:00
6:15 PM,68.0,60.8,78,30.14,10.0,ESE,4.6,-,N/A,,Clear,110,2012-10-23 22:15:00
6:35 PM,66.2,62.6,88,30.14,10.0,ESE,4.6,-,N/A,,Clear,120,2012-10-23 22:35:00
6:55 PM,64.4,60.8,88,30.14,10.0,Calm,Calm,-,N/A,,Clear,0,2012-10-23 22:55:00
7:15 PM,64.4,62.6,94,30.15,10.0,Calm,Calm,-,N/A,,Clear,0,2012-10-23 23:15:00
7:35 PM,60.8,60.8,100,30.16,10.0,Calm,Calm,-,N/A,,Clear,0,2012-10-23 23:35:00
7:55 PM,60.8,60.8,100,30.16,10.0,Calm,Calm,-,N/A,,Clear,0,2012-10-23 23:55:00
8:15 PM,59.0,59.0,100,30.16,10.0,Calm,Calm,-,N/A,,Clear,0,2012-10-24 00:15:00
8:35 PM,59.0,59.0,100,30.16,10.0,Calm,Calm,-,N/A,,Clear,0,2012-10-24 00:35:00
8:55 PM,59.0,59.0,100,30.16,5.0,Calm,Calm,-,N/A,,Clear,0,2012-10-24 00:55:00
9:15 PM,55.4,55.4,100,30.17,3.0,Calm,Calm,-,N/A,,Clear,0,2012-10-24 01:15:00
9:35 PM,55.4,55.4,100,30.17,10.0,Calm,Calm,-,N/A,,Clear,0,2012-10-24 01:35:00
9:55 PM,53.6,53.6,100,30.18,10.0,Calm,Calm,-,N/A,,Clear,0,2012-10-24 01:55:00
10:15 PM,55.4,55.4,100,30.18,10.0,Calm,Calm,-,N/A,,Clear,0,2012-10-24 02:15:00
10:35 PM,55.4,55.4,100,30.18,10.0,Calm,Calm,-,N/A,,Clear,0,2012-10-24 02:35:00
10:55 PM,53.6,53.6,100,30.18,10.0,Calm,Calm,-,N/A,,Clear,0,2012-10-24 02:55:00
11:15 PM,53.6,53.6,100,30.18,10.0,Calm,Calm,-,N/A,,Clear,0,2012-10-24 03:15:00
11:35 PM,53.6,53.6,100,30.18,10.0,Calm,Calm,-,N/A,,Clear,0,2012-10-24 03:35:00
11:55 PM,53.6,53.6,100,30.18,10.0,Calm,Calm,-,N/A,,Clear,0,2012-10-24 03:55:00